This is the latest recevied weather packets stored in our database for station/object PD2BVG. If no packets are shown the sender has not sent any weather packets the latest 10 day(s).
| Time | Temp. | Humidity | Pressure | Rain* | Wind** | Luminosity | Snow |
|---|---|---|---|---|---|---|---|
| 1788019770 | 18.89° C | 97% | 1006.5 hPa | 0 mm | - | 141 W/m² | - |
| 1788019709 | 18.89° C | 97% | 1006.6 hPa | 0 mm | - | 128 W/m² | - |
| 1788019649 | 18.89° C | 97% | 1006.7 hPa | 0 mm | - | 114 W/m² | - |
| 1788019590 | 18.89° C | 96% | 1006.6 hPa | 0 mm | - | 92 W/m² | - |
| 1788019527 | 18.89° C | 96% | 1006.6 hPa | 0 mm | - | 92 W/m² | - |
| 1788019466 | 18.89° C | 96% | 1006.7 hPa | 0 mm | - | 100 W/m² | - |
| 1788019405 | 18.89° C | 96% | 1006.7 hPa | 0 mm | - | 88 W/m² | - |
| 1788019345 | 18.89° C | 96% | 1006.8 hPa | 0 mm | - | 79 W/m² | - |
| 1788019285 | 18.89° C | 96% | 1006.7 hPa | 0 mm | - | 48 W/m² | - |
| 1788019224 | 18.89° C | 96% | 1006.7 hPa | 0 mm | - | 48 W/m² | - |
| 1788019163 | 18.89° C | 96% | 1006.7 hPa | 0 mm | - | 48 W/m² | - |
| 1788019102 | 18.89° C | 96% | 1006.7 hPa | 0 mm | - | 49 W/m² | - |
| 1788019046 | 18.89° C | 96% | 1006.7 hPa | 0 mm | - | 37 W/m² | - |
| 1788018984 | 18.89° C | 96% | 1006.8 hPa | 0 mm | - | 37 W/m² | - |
| 1788018922 | 18.89° C | 96% | 1006.8 hPa | 0 mm | - | 44 W/m² | - |
| 1788018854 | 18.89° C | 96% | 1006.8 hPa | 0 mm | - | 46 W/m² | - |
| 1788018792 | 18.89° C | 96% | 1006.6 hPa | 0.25 mm | - | 41 W/m² | - |
| 1788018730 | 18.89° C | 96% | 1006.7 hPa | 0.25 mm | - | 55 W/m² | - |
| 1788018667 | 18.89° C | 96% | 1006.8 hPa | 0.25 mm | - | 85 W/m² | - |
| 1788018604 | 18.89° C | 96% | 1006.7 hPa | 0.25 mm | - | 88 W/m² | - |
| 1788018544 | 18.89° C | 96% | 1006.7 hPa | 0.25 mm | - | 90 W/m² | - |
| 1788018483 | 18.89° C | 96% | 1006.7 hPa | 0.25 mm | - | 85 W/m² | - |
| 1788018423 | 18.89° C | 96% | 1006.8 hPa | 0.25 mm | - | 72 W/m² | - |
| 1788018363 | 18.89° C | 95% | 1006.8 hPa | 0.25 mm | - | 65 W/m² | - |
| 1788018303 | 18.89° C | 95% | 1006.8 hPa | 0.25 mm | - | 67 W/m² | - |
* Rain latest hour (hover to see other rain measurements)
** Current wind speed in m/s (hover to see current wind gust speed)